Regional Weather Roundup
Issued by NWS

Home | Current Version | Previous Version | Graphics & Text | Print | Product List | Glossary On
Versions: 1 2 3 4 5 6 7 8 9 10 11 12 13 14 15 16 17 18 19 20 21 22 23 24 25 26 27 28 29 30 31 32 33 34 35 36 37 38 39 40 41 42 43 44 45 46 47 48 49 50
000
ASUS43 KIND 231409
RWRIN

WEATHER ROUNDUP FOR INDIANA
NATIONAL WEATHER SERVICE INDIANAPOLIS IN
1000 AM EDT WED AUG 23 2017

NOTE: "FAIR" INDICATES FEW OR NO CLOUDS BELOW 12,000 FEET WITH NO
SIGNIFICANT WEATHER AND/OR OBSTRUCTIONS TO VISIBILITY.

* - STATION DOES NOT REPORT WEATHER SUCH AS PRECIPITATION OR FOG.

+ - STATION NOT QUALITY CONTROLLED BY THE NATIONAL WEATHER SERVICE.
    USE DATA WITH CAUTION...ESPECIALLY DEWPOINT AND RELATIVE
    HUMIDITY OBSERVATIONS.

INZ001>003-010>013-019-020-231500-
NORTHWEST INDIANA

CITY           SKY/WX    TMP DP  RH WIND       PRES   REMARKS
GARY /AIRPORT/ SUNNY     70  50  49 W12       30.05R
KNOX *+        SUNNY     64  59  82 W6        30.03S
LA PORTE +     SUNNY     68  58  69 NW9       30.04R
MICHIGAN CITY+ SUNNY     70  54  56 NW12      30.03S
MONTICELLO +   SUNNY     64  57  78 W3        30.05R
RENSSELAER +   SUNNY     64  52  63 NW7       30.06S
VALPARAISO     SUNNY     69  55  60 NW8       30.04S

$$

LMZ046-743>745-231500-
SOUTHERN LAKE MICHIGAN

STATION/POSITION TIME  TEMP    WIND        PRES    WAVE
                       AIR SEA DIR/SP/G            HT
                 (UTC) (F)     (DEG/KT/KT) (MB)    (FT)
BURNS HARBOR     1340   69     310/ 14/ 18 1017.3S
MICHIGAN CITY    1340   69     290/ 16/ 18   N/A
5NW MICH CITY    1400   69 73  320/ 14/ 17   N/A     4

$$

INZ004-005-014>016-021>024-231500-
NORTH CENTRAL INDIANA

CITY           SKY/WX    TMP DP  RH WIND       PRES   REMARKS
ELKHART        SUNNY     64  57  77 W8        30.01S
GOSHEN         SUNNY     68  55  63 NW8       30.01S
LOGANSPORT +   SUNNY     64  55  72 NW3       30.05S
PERU/GRISSOM   SUNNY     66  58  77 NW6       30.03S
ROCHESTER +    SUNNY     68  59  73 W6        30.04S
SOUTH BEND     SUNNY     69  59  70 NW9       30.02S
WARSAW +       SUNNY     64  57  77 W7        30.02S

$$

INZ006>009-017-018-025>027-231500-
NORTHEAST INDIANA

CITY           SKY/WX    TMP DP  RH WIND       PRES   REMARKS
AUBURN +       SUNNY     66  57  72 W7        30.02S
FORT WAYNE     SUNNY     68  59  73 NW8       30.02R
HUNTINGTON +   SUNNY     67  59  76 NW5       30.02S
KENDALLVILLE + SUNNY     66  59  79 W3        30.02S

$$

INZ028-029-035-036-043>045-051>053-231500-
WEST CENTRAL INDIANA

CITY           SKY/WX    TMP DP  RH WIND       PRES   REMARKS
GREENCASTLE +  SUNNY     64  54  68 N5        30.07S
LAFAYETTE      SUNNY     65  56  72 NW6       30.05S
TERRE HAUTE    SUNNY     67  55  65 N6        30.07R

$$

INZ030>032-037>040-046>048-054>057-064-065-231500-
CENTRAL INDIANA

CITY           SKY/WX    TMP DP  RH WIND       PRES   REMARKS
ANDERSON       SUNNY     66  57  72 MISG      30.03S
CP ATTERBURY + PTSUNNY   68  61  77 CALM      30.06R
COLUMBUS       PTSUNNY   64  61  88 CALM      30.05S
FISHERS *+     MOSUNNY   68  61  77 NW3       30.06
FRANKFORT +    CLOUDY    67  58  73 NW5       30.07R
INDIANAPOLIS   PTSUNNY   68  55  63 N6        30.05R
-EAGLE CREEK   MOSUNNY   69  55  60 NW6       30.05R
KOKOMO +       SUNNY     66  58  75 NW7       30.05R
MARION +       SUNNY     64  59  82 NW5       30.05R
MT COMFORT *+  PTSUNNY   66  59  77 N5        30.05R
SHELBYVILLE    MOSUNNY   70  61  73 NW6       30.05R
ZIONSVILLE +   MOSUNNY   65  56  75 NW5       30.06S

$$

INZ033-034-041-042-049-050-058-059-231500-
EAST CENTRAL INDIANA

CITY           SKY/WX    TMP DP  RH WIND       PRES   REMARKS
MUNCIE         MOSUNNY   69  59  70 NW6       30.04R
RICHMOND +     MOSUNNY   64  59  82 NW3       30.06S

$$

INZ060-061-067>069-081>083-085>088-231500-
SOUTHWEST INDIANA

CITY           SKY/WX    TMP DP  RH WIND       PRES   REMARKS
EVANSVILLE     SUNNY     69  58  67 N8        30.07R
HUNTINGBURG +  SUNNY     67  61  81 MISG      30.06R
WASHINGTON +   SUNNY     66  58  74 MISG      30.06R

$$

INZ062-063-066-070>080-084-089>092-231500-
SOUTH CENTRAL AND SOUTHEAST INDIANA

CITY           SKY/WX    TMP DP  RH WIND       PRES   REMARKS
BEDFORD +      MOSUNNY   68  61  77 CALM      30.05R
BLOOMINGTON    SUNNY     68  58  70 N5        30.06R
MADISON *+     SUNNY     68  59  73 N5        30.06S
NORTH VERNON + PTSUNNY   66  59  77 CALM      30.05S

$$





USA.gov is the U.S. government's official web portal to all federal, state and local government web resources and services.